
Distance (Route):
Temperature : 0°C
Humidity : 0%
Pressure : 0hPa| Receiver | Frames | First received | Last received |
|---|---|---|---|
| 9A1FER-10 | 201 | 2026-09-03 23:49:10 | 2026-09-04 00:57:16 |
| 9A1FER-3 | 129 | 2026-09-03 23:49:05 | 2026-09-04 00:56:39 |
| IN3HCDX1 | 19 | 2026-09-04 00:37:16 | 2026-09-04 00:45:15 |
| OE3JTB-15 | 14 | 2026-09-03 23:52:28 | 2026-09-04 00:55:54 |
| HA6NAB-11 | 3 | 2026-09-04 00:30:19 | 2026-09-04 00:30:37 |
| Receiver | Date | Latitude | Longitude | Direction | Speed | Altitude | Climb | Temperature | Humidity | Pressure | Voltage | Killtimer | Uptime | BKT | XDATA |
|---|---|---|---|---|---|---|---|---|---|---|---|---|---|---|---|
| 9A1FER-10 | 2026-09-04 00:57:16 | 45.38197 | 14.88876 | 167° | 97km/h | 9789m | -13.4m/s | 0°C | 0% | 0hPa | 0V | 00:00:00 | 00:00:00 | 00:00:00 | |
| 9A1FER-10 | 2026-09-04 00:57:00 | 45.38592 | 14.88786 | 174° | 106km/h | 10028m | -18.1m/s | 0°C | 0% | 0hPa | 0V | 00:00:00 | 00:00:00 | 00:00:00 | |
| 9A1FER-10 | 2026-09-04 00:56:42 | 45.39073 | 14.88709 | 176° | 115km/h | 10294m | -16.7m/s | 0°C | 0% | 0hPa | 0V | 00:00:00 | 00:00:00 | 00:00:00 | |
| 9A1FER-3 | 2026-09-04 00:56:39 | 45.39156 | 14.88698 | 175° | 117km/h | 10343m | -15.3m/s | 0°C | 0% | 0hPa | 0V | 00:00:00 | 00:00:00 | 00:00:00 | |
| 9A1FER-10 | 2026-09-04 00:56:26 | 45.39534 | 14.88664 | 179° | 119km/h | 10542m | -16.6m/s | 0°C | 0% | 0hPa | 0V | 00:00:00 | 00:00:00 | 00:00:00 | |
| 9A1FER-3 | 2026-09-04 00:56:23 | 45.39624 | 14.88656 | 178° | 122km/h | 10591m | -16.5m/s | 0°C | 0% | 0hPa | 0V | 00:00:00 | 00:00:00 | 00:00:00 | |
| 9A1FER-10 | 2026-09-04 00:56:10 | 45.40010 | 14.88607 | 173° | 117km/h | 10802m | -17.2m/s | 0°C | 0% | 0hPa | 0V | 00:00:00 | 00:00:00 | 00:00:00 | |
| 9A1FER-3 | 2026-09-04 00:56:08 | 45.40068 | 14.88596 | 174° | 124km/h | 10837m | -14.6m/s | 0°C | 0% | 0hPa | 0V | 00:00:00 | 00:00:00 | 00:00:00 | |
| 9A1FER-10 | 2026-09-04 00:55:55 | 45.40453 | 14.88558 | 179° | 122km/h | 11034m | -15.6m/s | 0°C | 0% | 0hPa | 0V | 00:00:00 | 00:00:00 | 00:00:00 | |
| OE3JTB-15 | 2026-09-04 00:55:54 | 45.40483 | 14.88556 | 177° | 117km/h | 11050m | -18.5m/s | 0°C | 0% | 0hPa | 0V | 00:00:00 | 00:00:00 | 00:00:00 | |
| 9A1FER-10 | 2026-09-04 00:55:15 | 45.41730 | 14.88484 | 178° | 128km/h | 11692m | -15.8m/s | 0°C | 0% | 0hPa | 0V | 00:00:00 | 00:00:00 | 00:00:00 | |
| 9A1FER-10 | 2026-09-04 00:54:56 | 45.42349 | 14.88490 | 182° | 120km/h | 12013m | -18.3m/s | 0°C | 0% | 0hPa | 0V | 00:00:00 | 00:00:00 | 00:00:00 | |
| 9A1FER-10 | 2026-09-04 00:54:39 | 45.42870 | 14.88440 | 169° | 126km/h | 12305m | -17.8m/s | 0°C | 0% | 0hPa | 0V | 00:00:00 | 00:00:00 | 00:00:00 | |
| 9A1FER-10 | 2026-09-04 00:54:24 | 45.43318 | 14.88263 | 161° | 141km/h | 12564m | -16.8m/s | 0°C | 0% | 0hPa | 0V | 00:00:00 | 00:00:00 | 00:00:00 | |
| 9A1FER-10 | 2026-09-04 00:54:09 | 45.43826 | 14.88034 | 166° | 141km/h | 12829m | -16.3m/s | 0°C | 0% | 0hPa | 0V | 00:00:00 | 00:00:00 | 00:00:00 | |
| 9A1FER-3 | 2026-09-04 00:53:56 | 45.44318 | 14.87878 | 172° | 91km/h | 13060m | -17.1m/s | 0°C | 0% | 0hPa | 0V | 00:00:00 | 00:00:00 | 00:00:00 | |
| 9A1FER-10 | 2026-09-04 00:53:47 | 45.44612 | 14.87814 | 170° | 113km/h | 13220m | -17.5m/s | 0°C | 0% | 0hPa | 0V | 00:00:00 | 00:00:00 | 00:00:00 | |
| 9A1FER-10 | 2026-09-04 00:53:32 | 45.45026 | 14.87672 | 169° | 93km/h | 13497m | -17.4m/s | 0°C | 0% | 0hPa | 0V | 00:00:00 | 00:00:00 | 00:00:00 | |
| 9A1FER-10 | 2026-09-04 00:53:17 | 45.45359 | 14.87503 | 152° | 95km/h | 13780m | -17.0m/s | 0°C | 0% | 0hPa | 0V | 00:00:00 | 00:00:00 | 00:00:00 | |
| 9A1FER-10 | 2026-09-04 00:53:02 | 45.45690 | 14.87289 | 159° | 73km/h | 14073m | -15.4m/s | 0°C | 0% | 0hPa | 0V | 00:00:00 | 00:00:00 | 00:00:00 | |
| 9A1FER-10 | 2026-09-04 00:52:44 | 45.46020 | 14.87115 | 155° | 69km/h | 14385m | -17.2m/s | 0°C | 0% | 0hPa | 0V | 00:00:00 | 00:00:00 | 00:00:00 | |
| 9A1FER-10 | 2026-09-04 00:52:29 | 45.46250 | 14.86919 | 149° | 75km/h | 14668m | -16.5m/s | 0°C | 0% | 0hPa | 0V | 00:00:00 | 00:00:00 | 00:00:00 | |
| 9A1FER-10 | 2026-09-04 00:52:13 | 45.46536 | 14.86694 | 149° | 69km/h | 14990m | -18.3m/s | 0°C | 0% | 0hPa | 0V | 00:00:00 | 00:00:00 | 00:00:00 | |
| 9A1FER-10 | 2026-09-04 00:51:57 | 45.46765 | 14.86518 | 153° | 55km/h | 15281m | -18.2m/s | 0°C | 0% | 0hPa | 0V | 00:00:00 | 00:00:00 | 00:00:00 | |
| 9A1FER-10 | 2026-09-04 00:51:41 | 45.46957 | 14.86353 | 149° | 49km/h | 15587m | -20.4m/s | 0°C | 0% | 0hPa | 0V | 00:00:00 | 00:00:00 | 00:00:00 | |
| 9A1FER-10 | 2026-09-04 00:51:26 | 45.47110 | 14.86196 | 140° | 47km/h | 15873m | -20.0m/s | 0°C | 0% | 0hPa | 0V | 00:00:00 | 00:00:00 | 00:00:00 | |
| 9A1FER-10 | 2026-09-04 00:51:11 | 45.47231 | 14.86002 | 127° | 47km/h | 16180m | -19.1m/s | 0°C | 0% | 0hPa | 0V | 00:00:00 | 00:00:00 | 00:00:00 | |
| 9A1FER-10 | 2026-09-04 00:50:56 | 45.47331 | 14.85787 | 122° | 51km/h | 16490m | -21.2m/s | 0°C | 0% | 0hPa | 0V | 00:00:00 | 00:00:00 | 00:00:00 | |
| 9A1FER-10 | 2026-09-04 00:50:41 | 45.47443 | 14.85551 | 130° | 47km/h | 16805m | -21.0m/s | 0°C | 0% | 0hPa | 0V | 00:00:00 | 00:00:00 | 00:00:00 | |
| 9A1FER-10 | 2026-09-04 00:50:25 | 45.47545 | 14.85317 | 127° | 58km/h | 17144m | -21.6m/s | 0°C | 0% | 0hPa | 0V | 00:00:00 | 00:00:00 | 00:00:00 | |
| 9A1FER-10 | 2026-09-04 00:50:10 | 45.47698 | 14.85103 | 148° | 31km/h | 17466m | -22.8m/s | 0°C | 0% | 0hPa | 0V | 00:00:00 | 00:00:00 | 00:00:00 | |
| 9A1FER-10 | 2026-09-04 00:49:54 | 45.47799 | 14.84990 | 143° | 38km/h | 17816m | -19.2m/s | 0°C | 0% | 0hPa | 0V | 00:00:00 | 00:00:00 | 00:00:00 | |
| 9A1FER-10 | 2026-09-04 00:49:39 | 45.47906 | 14.84868 | 155° | 44km/h | 18144m | -22.1m/s | 0°C | 0% | 0hPa | 0V | 00:00:00 | 00:00:00 | 00:00:00 | |
| 9A1FER-3 | 2026-09-04 00:49:30 | 45.48006 | 14.84814 | 161° | 38km/h | 18320m | -18.8m/s | 0°C | 0% | 0hPa | 0V | 00:00:00 | 00:00:00 | 00:00:00 | |
| 9A1FER-10 | 2026-09-04 00:49:24 | 45.48060 | 14.84774 | 147° | 38km/h | 18447m | -18.8m/s | 0°C | 0% | 0hPa | 0V | 00:00:00 | 00:00:00 | 00:00:00 | |
| 9A1FER-3 | 2026-09-04 00:49:12 | 45.48162 | 14.84711 | 168° | 16km/h | 18710m | -21.2m/s | 0°C | 0% | 0hPa | 0V | 00:00:00 | 00:00:00 | 00:00:00 | |
| 9A1FER-10 | 2026-09-04 00:49:09 | 45.48183 | 14.84708 | 179° | 15km/h | 18775m | -23.0m/s | 0°C | 0% | 0hPa | 0V | 00:00:00 | 00:00:00 | 00:00:00 | |
| 9A1FER-10 | 2026-09-04 00:48:53 | 45.48228 | 14.84671 | 116° | 24km/h | 19157m | -21.5m/s | 0°C | 0% | 0hPa | 0V | 00:00:00 | 00:00:00 | 00:00:00 | |
| 9A1FER-10 | 2026-09-04 00:48:37 | 45.48303 | 14.84598 | 152° | 24km/h | 19519m | -18.8m/s | 0°C | 0% | 0hPa | 0V | 00:00:00 | 00:00:00 | 00:00:00 | |
| 9A1FER-10 | 2026-09-04 00:48:21 | 45.48384 | 14.84535 | 145° | 15km/h | 19897m | -24.8m/s | 0°C | 0% | 0hPa | 0V | 00:00:00 | 00:00:00 | 00:00:00 | |
| 9A1FER-10 | 2026-09-04 00:48:05 | 45.48386 | 14.84459 | 93° | 16km/h | 20266m | -22.6m/s | 0°C | 0% | 0hPa | 0V | 00:00:00 | 00:00:00 | 00:00:00 | |
| 9A1FER-10 | 2026-09-04 00:47:50 | 45.48423 | 14.84413 | 218° | 5km/h | 20628m | -22.3m/s | 0°C | 0% | 0hPa | 0V | 00:00:00 | 00:00:00 | 00:00:00 | |
| 9A1FER-10 | 2026-09-04 00:47:35 | 45.48430 | 14.84424 | 89° | 11km/h | 21000m | -26.8m/s | 0°C | 0% | 0hPa | 0V | 00:00:00 | 00:00:00 | 00:00:00 | |
| 9A1FER-10 | 2026-09-04 00:47:20 | 45.48474 | 14.84437 | 183° | 5km/h | 21388m | -22.4m/s | 0°C | 0% | 0hPa | 0V | 00:00:00 | 00:00:00 | 00:00:00 | |
| 9A1FER-10 | 2026-09-04 00:47:03 | 45.48494 | 14.84431 | 266° | 9km/h | 21787m | -24.7m/s | 0°C | 0% | 0hPa | 0V | 00:00:00 | 00:00:00 | 00:00:00 | |
| 9A1FER-10 | 2026-09-04 00:46:43 | 45.48491 | 14.84422 | 148° | 9km/h | 22295m | -25.5m/s | 0°C | 0% | 0hPa | 0V | 00:00:00 | 00:00:00 | 00:00:00 | |
| 9A1FER-10 | 2026-09-04 00:46:28 | 45.48521 | 14.84393 | 144° | 18km/h | 22701m | -24.8m/s | 0°C | 0% | 0hPa | 0V | 00:00:00 | 00:00:00 | 00:00:00 | |
| 9A1FER-10 | 2026-09-04 00:46:13 | 45.48587 | 14.84424 | 250° | 13km/h | 23086m | -26.7m/s | 0°C | 0% | 0hPa | 0V | 00:00:00 | 00:00:00 | 00:00:00 | |
| 9A1FER-10 | 2026-09-04 00:45:58 | 45.48613 | 14.84474 | 230° | 20km/h | 23499m | -27.7m/s | 0°C | 0% | 0hPa | 0V | 00:00:00 | 00:00:00 | 00:00:00 | |
| 9A1FER-10 | 2026-09-04 00:45:38 | 45.48588 | 14.84617 | 350° | 16km/h | 23998m | -25.7m/s | 0°C | 0% | 0hPa | 0V | 00:00:00 | 00:00:00 | 00:00:00 | |
| 9A1FER-3 | 2026-09-04 00:45:24 | 45.48536 | 14.84667 | 327° | 18km/h | 24111m | 5.8m/s | 0°C | 0% | 0hPa | 0V | 00:00:00 | 00:00:00 | 00:00:00 | |
| IN3HCDX1 | 2026-09-04 00:45:15 | 45.48503 | 14.84699 | 317° | 18km/h | 24062m | 5.4m/s | 0°C | 0% | 0hPa | 0V | 00:00:00 | 00:00:00 | 00:00:00 | |
| 9A1FER-3 | 2026-09-04 00:45:10 | 45.48487 | 14.84723 | 301° | 20km/h | 24029m | 4.4m/s | 0°C | 0% | 0hPa | 0V | 00:00:00 | 00:00:00 | 00:00:00 | |
| 9A1FER-10 | 2026-09-04 00:45:06 | 45.48475 | 14.84739 | 346° | 20km/h | 24013m | 6.5m/s | 0°C | 0% | 0hPa | 0V | 00:00:00 | 00:00:00 | 00:00:00 | |
| 9A1FER-3 | 2026-09-04 00:44:53 | 45.48427 | 14.84794 | 309° | 22km/h | 23944m | 7.7m/s | 0°C | 0% | 0hPa | 0V | 00:00:00 | 00:00:00 | 00:00:00 | |
| 9A1FER-10 | 2026-09-04 00:44:51 | 45.48423 | 14.84806 | 293° | 24km/h | 23931m | 5.3m/s | 0°C | 0% | 0hPa | 0V | 00:00:00 | 00:00:00 | 00:00:00 | |
| 9A1FER-3 | 2026-09-04 00:44:39 | 45.48383 | 14.84892 | 318° | 26km/h | 23860m | 4.5m/s | 0°C | 0% | 0hPa | 0V | 00:00:00 | 00:00:00 | 00:00:00 | |
| 9A1FER-10 | 2026-09-04 00:44:36 | 45.48373 | 14.84906 | 310° | 26km/h | 23849m | 4.8m/s | 0°C | 0% | 0hPa | 0V | 00:00:00 | 00:00:00 | 00:00:00 | |
| IN3HCDX1 | 2026-09-04 00:44:33 | 45.48368 | 14.84928 | 257° | 18km/h | 23831m | 4.6m/s | 0°C | 0% | 0hPa | 0V | 00:00:00 | 00:00:00 | 00:00:00 | |
| 9A1FER-3 | 2026-09-04 00:44:24 | 45.48347 | 14.85016 | 284° | 33km/h | 23780m | 4.5m/s | 0°C | 0% | 0hPa | 0V | 00:00:00 | 00:00:00 | 00:00:00 | |
| 9A1FER-10 | 2026-09-04 00:44:21 | 45.48345 | 14.85034 | 265° | 29km/h | 23768m | 4.9m/s | 0°C | 0% | 0hPa | 0V | 00:00:00 | 00:00:00 | 00:00:00 | |
| IN3HCDX1 | 2026-09-04 00:44:13 | 45.48336 | 14.85113 | 292° | 31km/h | 23726m | 5.9m/s | 0°C | 0% | 0hPa | 0V | 00:00:00 | 00:00:00 | 00:00:00 | |
| 9A1FER-3 | 2026-09-04 00:44:08 | 45.48338 | 14.85166 | 245° | 27km/h | 23698m | 6.8m/s | 0°C | 0% | 0hPa | 0V | 00:00:00 | 00:00:00 | 00:00:00 | |
| 9A1FER-10 | 2026-09-04 00:44:06 | 45.48343 | 14.85187 | 257° | 26km/h | 23688m | 5.2m/s | 0°C | 0% | 0hPa | 0V | 00:00:00 | 00:00:00 | 00:00:00 | |
| 9A1FER-3 | 2026-09-04 00:43:53 | 45.48368 | 14.85295 | 273° | 20km/h | 23616m | 4.0m/s | 0°C | 0% | 0hPa | 0V | 00:00:00 | 00:00:00 | 00:00:00 | |
| 9A1FER-10 | 2026-09-04 00:43:51 | 45.48370 | 14.85308 | 244° | 20km/h | 23606m | 6.3m/s | 0°C | 0% | 0hPa | 0V | 00:00:00 | 00:00:00 | 00:00:00 | |
| 9A1FER-10 | 2026-09-04 00:43:36 | 45.48423 | 14.85388 | 222° | 15km/h | 23526m | 5.1m/s | 0°C | 0% | 0hPa | 0V | 00:00:00 | 00:00:00 | 00:00:00 | |
| 9A1FER-3 | 2026-09-04 00:43:33 | 45.48433 | 14.85402 | 223° | 15km/h | 23509m | 4.4m/s | 0°C | 0% | 0hPa | 0V | 00:00:00 | 00:00:00 | 00:00:00 | |
| IN3HCDX1 | 2026-09-04 00:43:32 | 45.48436 | 14.85406 | 222° | 15km/h | 23503m | 6.3m/s | 0°C | 0% | 0hPa | 0V | 00:00:00 | 00:00:00 | 00:00:00 | |
| 9A1FER-10 | 2026-09-04 00:43:20 | 45.48467 | 14.85441 | 246° | 9km/h | 23437m | 6.0m/s | 0°C | 0% | 0hPa | 0V | 00:00:00 | 00:00:00 | 00:00:00 | |
| 9A1FER-3 | 2026-09-04 00:43:18 | 45.48471 | 14.85445 | 209° | 7km/h | 23427m | 7.4m/s | 0°C | 0% | 0hPa | 0V | 00:00:00 | 00:00:00 | 00:00:00 | |
| IN3HCDX1 | 2026-09-04 00:43:11 | 45.48482 | 14.85451 | 205° | 9km/h | 23389m | 4.2m/s | 0°C | 0% | 0hPa | 0V | 00:00:00 | 00:00:00 | 00:00:00 | |
| 9A1FER-10 | 2026-09-04 00:43:05 | 45.48491 | 14.85467 | 214° | 11km/h | 23354m | 6.7m/s | 0°C | 0% | 0hPa | 0V | 00:00:00 | 00:00:00 | 00:00:00 | |
| 9A1FER-3 | 2026-09-04 00:43:03 | 45.48492 | 14.85469 | 169° | 11km/h | 23343m | 7.1m/s | 0°C | 0% | 0hPa | 0V | 00:00:00 | 00:00:00 | 00:00:00 | |
| 9A1FER-10 | 2026-09-04 00:42:50 | 45.48506 | 14.85515 | 239° | 16km/h | 23276m | 5.3m/s | 0°C | 0% | 0hPa | 0V | 00:00:00 | 00:00:00 | 00:00:00 | |
| 9A1FER-3 | 2026-09-04 00:42:48 | 45.48506 | 14.85525 | 287° | 16km/h | 23267m | 4.1m/s | 0°C | 0% | 0hPa | 0V | 00:00:00 | 00:00:00 | 00:00:00 | |
| 9A1FER-10 | 2026-09-04 00:42:35 | 45.48514 | 14.85592 | 219° | 22km/h | 23195m | 5.8m/s | 0°C | 0% | 0hPa | 0V | 00:00:00 | 00:00:00 | 00:00:00 | |
| 9A1FER-3 | 2026-09-04 00:42:33 | 45.48521 | 14.85600 | 223° | 24km/h | 23183m | 7.6m/s | 0°C | 0% | 0hPa | 0V | 00:00:00 | 00:00:00 | 00:00:00 | |
| IN3HCDX1 | 2026-09-04 00:42:30 | 45.48529 | 14.85621 | 244° | 20km/h | 23167m | 5.8m/s | 0°C | 0% | 0hPa | 0V | 00:00:00 | 00:00:00 | 00:00:00 | |
| 9A1FER-10 | 2026-09-04 00:42:20 | 45.48554 | 14.85691 | 250° | 24km/h | 23112m | 5.7m/s | 0°C | 0% | 0hPa | 0V | 00:00:00 | 00:00:00 | 00:00:00 | |
| 9A1FER-3 | 2026-09-04 00:42:18 | 45.48558 | 14.85707 | 255° | 26km/h | 23102m | 4.5m/s | 0°C | 0% | 0hPa | 0V | 00:00:00 | 00:00:00 | 00:00:00 | |
| IN3HCDX1 | 2026-09-04 00:42:08 | 45.48596 | 14.85760 | 245° | 22km/h | 23049m | 5.4m/s | 0°C | 0% | 0hPa | 0V | 00:00:00 | 00:00:00 | 00:00:00 | |
| 9A1FER-10 | 2026-09-04 00:42:05 | 45.48610 | 14.85780 | 207° | 26km/h | 23033m | 6.1m/s | 0°C | 0% | 0hPa | 0V | 00:00:00 | 00:00:00 | 00:00:00 | |
| 9A1FER-3 | 2026-09-04 00:42:03 | 45.48624 | 14.85787 | 196° | 24km/h | 23023m | 6.5m/s | 0°C | 0% | 0hPa | 0V | 00:00:00 | 00:00:00 | 00:00:00 | |
| 9A1FER-10 | 2026-09-04 00:41:50 | 45.48695 | 14.85827 | 173° | 24km/h | 22950m | 3.8m/s | 0°C | 0% | 0hPa | 0V | 00:00:00 | 00:00:00 | 00:00:00 | |
| 9A1FER-3 | 2026-09-04 00:41:48 | 45.48706 | 14.85830 | 201° | 26km/h | 22940m | 5.0m/s | 0°C | 0% | 0hPa | 0V | 00:00:00 | 00:00:00 | 00:00:00 | |
| IN3HCDX1 | 2026-09-04 00:41:47 | 45.48712 | 14.85834 | 209° | 27km/h | 22934m | 5.4m/s | 0°C | 0% | 0hPa | 0V | 00:00:00 | 00:00:00 | 00:00:00 | |
| 9A1FER-10 | 2026-09-04 00:41:35 | 45.48780 | 14.85836 | 192° | 18km/h | 22868m | 5.5m/s | 0°C | 0% | 0hPa | 0V | 00:00:00 | 00:00:00 | 00:00:00 | |
| 9A1FER-3 | 2026-09-04 00:41:33 | 45.48788 | 14.85836 | 174° | 15km/h | 22858m | 5.7m/s | 0°C | 0% | 0hPa | 0V | 00:00:00 | 00:00:00 | 00:00:00 | |
| IN3HCDX1 | 2026-09-04 00:41:24 | 45.48827 | 14.85815 | 124° | 15km/h | 22806m | 4.6m/s | 0°C | 0% | 0hPa | 0V | 00:00:00 | 00:00:00 | 00:00:00 | |
| 9A1FER-10 | 2026-09-04 00:41:20 | 45.48839 | 14.85799 | 129° | 16km/h | 22784m | 5.3m/s | 0°C | 0% | 0hPa | 0V | 00:00:00 | 00:00:00 | 00:00:00 | |
| 9A1FER-3 | 2026-09-04 00:41:18 | 45.48843 | 14.85794 | 175° | 16km/h | 22774m | 6.0m/s | 0°C | 0% | 0hPa | 0V | 00:00:00 | 00:00:00 | 00:00:00 | |
| 9A1FER-10 | 2026-09-04 00:41:05 | 45.48896 | 14.85785 | 196° | 15km/h | 22702m | 5.6m/s | 0°C | 0% | 0hPa | 0V | 00:00:00 | 00:00:00 | 00:00:00 | |
| IN3HCDX1 | 2026-09-04 00:41:03 | 45.48907 | 14.85786 | 170° | 20km/h | 22692m | 4.8m/s | 0°C | 0% | 0hPa | 0V | 00:00:00 | 00:00:00 | 00:00:00 | |
| 9A1FER-3 | 2026-09-04 00:41:02 | 45.48912 | 14.85784 | 178° | 13km/h | 22687m | 5.7m/s | 0°C | 0% | 0hPa | 0V | 00:00:00 | 00:00:00 | 00:00:00 | |
| 9A1FER-10 | 2026-09-04 00:40:50 | 45.48949 | 14.85772 | 175° | 11km/h | 22625m | 4.1m/s | 0°C | 0% | 0hPa | 0V | 00:00:00 | 00:00:00 | 00:00:00 | |
| 9A1FER-3 | 2026-09-04 00:40:47 | 45.48950 | 14.85766 | 81° | 11km/h | 22608m | 5.6m/s | 0°C | 0% | 0hPa | 0V | 00:00:00 | 00:00:00 | 00:00:00 | |
| IN3HCDX1 | 2026-09-04 00:40:42 | 45.48961 | 14.85748 | 124° | 18km/h | 22582m | 4.5m/s | 0°C | 0% | 0hPa | 0V | 00:00:00 | 00:00:00 | 00:00:00 | |
| 9A1FER-10 | 2026-09-04 00:40:35 | 45.48958 | 14.85725 | 84° | 9km/h | 22544m | 5.6m/s | 0°C | 0% | 0hPa | 0V | 00:00:00 | 00:00:00 | 00:00:00 | |
| 9A1FER-3 | 2026-09-04 00:40:32 | 45.48962 | 14.85716 | 141° | 9km/h | 22526m | 6.4m/s | 0°C | 0% | 0hPa | 0V | 00:00:00 | 00:00:00 | 00:00:00 | |
| IN3HCDX1 | 2026-09-04 00:40:20 | 45.48965 | 14.85703 | 163° | 11km/h | 22463m | 3.8m/s | 0°C | 0% | 0hPa | 0V | 00:00:00 | 00:00:00 | 00:00:00 | |
| 9A1FER-3 | 2026-09-04 00:40:17 | 45.48971 | 14.85708 | 226° | 13km/h | 22448m | 4.8m/s | 0°C | 0% | 0hPa | 0V | 00:00:00 | 00:00:00 | 00:00:00 | |
| 9A1FER-10 | 2026-09-04 00:40:05 | 45.48998 | 14.85710 | 186° | 15km/h | 22383m | 4.5m/s | 0°C | 0% | 0hPa | 0V | 00:00:00 | 00:00:00 | 00:00:00 | |
| 9A1FER-3 | 2026-09-04 00:40:01 | 45.49018 | 14.85694 | 143° | 13km/h | 22361m | 4.4m/s | 0°C | 0% | 0hPa | 0V | 00:00:00 | 00:00:00 | 00:00:00 | |
| OE3JTB-15 | 2026-09-04 00:39:59 | 45.49029 | 14.85679 | 148° | 35km/h | 22347m | 4.4m/s | 0°C | 0% | 0hPa | 0V | 00:00:00 | 00:00:00 | 00:00:00 | |
| 9A1FER-10 | 2026-09-04 00:39:50 | 45.49044 | 14.85673 | 108° | 11km/h | 22303m | 6.1m/s | 0°C | 0% | 0hPa | 0V | 00:00:00 | 00:00:00 | 00:00:00 | |
| 9A1FER-3 | 2026-09-04 00:39:42 | 45.49053 | 14.85653 | 121° | 9km/h | 22263m | 6.2m/s | 0°C | 0% | 0hPa | 0V | 00:00:00 | 00:00:00 | 00:00:00 | |
| IN3HCDX1 | 2026-09-04 00:39:37 | 45.49053 | 14.85633 | 60° | 18km/h | 22235m | 4.3m/s | 0°C | 0% | 0hPa | 0V | 00:00:00 | 00:00:00 | 00:00:00 | |
| 9A1FER-10 | 2026-09-04 00:39:35 | 45.49067 | 14.85626 | 104° | 9km/h | 22224m | 5.9m/s | 0°C | 0% | 0hPa | 0V | 00:00:00 | 00:00:00 | 00:00:00 | |
| 9A1FER-3 | 2026-09-04 00:39:27 | 45.49049 | 14.85611 | 53° | 13km/h | 22181m | 6.3m/s | 0°C | 0% | 0hPa | 0V | 00:00:00 | 00:00:00 | 00:00:00 | |
| 9A1FER-10 | 2026-09-04 00:39:20 | 45.49038 | 14.85589 | 97° | 9km/h | 22145m | 4.3m/s | 0°C | 0% | 0hPa | 0V | 00:00:00 | 00:00:00 | 00:00:00 | |
| IN3HCDX1 | 2026-09-04 00:39:16 | 45.49036 | 14.85585 | 37° | 15km/h | 22123m | 6.9m/s | 0°C | 0% | 0hPa | 0V | 00:00:00 | 00:00:00 | 00:00:00 | |
| 9A1FER-3 | 2026-09-04 00:39:12 | 45.49021 | 14.85573 | 23° | 9km/h | 22099m | 6.3m/s | 0°C | 0% | 0hPa | 0V | 00:00:00 | 00:00:00 | 00:00:00 | |
| 9A1FER-10 | 2026-09-04 00:39:05 | 45.49016 | 14.85578 | 351° | 11km/h | 22060m | 5.3m/s | 0°C | 0% | 0hPa | 0V | 00:00:00 | 00:00:00 | 00:00:00 | |
| 9A1FER-3 | 2026-09-04 00:38:57 | 45.49012 | 14.85582 | 207° | 11km/h | 22018m | 4.3m/s | 0°C | 0% | 0hPa | 0V | 00:00:00 | 00:00:00 | 00:00:00 | |
| IN3HCDX1 | 2026-09-04 00:38:56 | 45.49015 | 14.85584 | 208° | 13km/h | 22013m | 6.1m/s | 0°C | 0% | 0hPa | 0V | 00:00:00 | 00:00:00 | 00:00:00 | |
| 9A1FER-10 | 2026-09-04 00:38:50 | 45.49004 | 14.85591 | 338° | 11km/h | 21980m | 6.4m/s | 0°C | 0% | 0hPa | 0V | 00:00:00 | 00:00:00 | 00:00:00 | |
| 9A1FER-3 | 2026-09-04 00:38:40 | 45.49017 | 14.85603 | 297° | 11km/h | 21930m | 4.6m/s | 0°C | 0% | 0hPa | 0V | 00:00:00 | 00:00:00 | 00:00:00 | |
| IN3HCDX1 | 2026-09-04 00:38:35 | 45.49017 | 14.85616 | 212° | 13km/h | 21900m | 4.8m/s | 0°C | 0% | 0hPa | 0V | 00:00:00 | 00:00:00 | 00:00:00 | |
| 9A1FER-10 | 2026-09-04 00:38:34 | 45.49019 | 14.85617 | 205° | 13km/h | 21895m | 6.1m/s | 0°C | 0% | 0hPa | 0V | 00:00:00 | 00:00:00 | 00:00:00 | |
| 9A1FER-3 | 2026-09-04 00:38:25 | 45.49007 | 14.85639 | 217° | 13km/h | 21845m | 4.0m/s | 0°C | 0% | 0hPa | 0V | 00:00:00 | 00:00:00 | 00:00:00 | |
| 9A1FER-10 | 2026-09-04 00:38:19 | 45.49010 | 14.85656 | 321° | 11km/h | 21811m | 5.5m/s | 0°C | 0% | 0hPa | 0V | 00:00:00 | 00:00:00 | 00:00:00 | |
| 9A1FER-3 | 2026-09-04 00:38:08 | 45.49023 | 14.85686 | 270° | 7km/h | 21754m | 4.0m/s | 0°C | 0% | 0hPa | 0V | 00:00:00 | 00:00:00 | 00:00:00 | |
| 9A1FER-10 | 2026-09-04 00:38:04 | 45.49028 | 14.85694 | 185° | 11km/h | 21733m | 6.1m/s | 0°C | 0% | 0hPa | 0V | 00:00:00 | 00:00:00 | 00:00:00 | |
| IN3HCDX1 | 2026-09-04 00:38:02 | 45.49036 | 14.85696 | 193° | 16km/h | 21722m | 5.9m/s | 0°C | 0% | 0hPa | 0V | 00:00:00 | 00:00:00 | 00:00:00 | |
| 9A1FER-3 | 2026-09-04 00:37:53 | 45.49050 | 14.85704 | 144° | 11km/h | 21678m | 4.5m/s | 0°C | 0% | 0hPa | 0V | 00:00:00 | 00:00:00 | 00:00:00 | |
| 9A1FER-10 | 2026-09-04 00:37:49 | 45.49066 | 14.85698 | 159° | 9km/h | 21656m | 5.6m/s | 0°C | 0% | 0hPa | 0V | 00:00:00 | 00:00:00 | 00:00:00 | |
| IN3HCDX1 | 2026-09-04 00:37:38 | 45.49082 | 14.85682 | 101° | 11km/h | 21600m | 3.2m/s | 0°C | 0% | 0hPa | 0V | 00:00:00 | 00:00:00 | 00:00:00 | |
| 9A1FER-3 | 2026-09-04 00:37:37 | 45.49083 | 14.85677 | 105° | 9km/h | 21595m | 4.9m/s | 0°C | 0% | 0hPa | 0V | 00:00:00 | 00:00:00 | 00:00:00 | |
| 9A1FER-10 | 2026-09-04 00:37:34 | 45.49086 | 14.85675 | 217° | 9km/h | 21579m | 4.2m/s | 0°C | 0% | 0hPa | 0V | 00:00:00 | 00:00:00 | 00:00:00 | |
| 9A1FER-3 | 2026-09-04 00:37:22 | 45.49096 | 14.85663 | 147° | 9km/h | 21518m | 3.7m/s | 0°C | 0% | 0hPa | 0V | 00:00:00 | 00:00:00 | 00:00:00 | |
| 9A1FER-10 | 2026-09-04 00:37:19 | 45.49101 | 14.85658 | 123° | 13km/h | 21503m | 6.3m/s | 0°C | 0% | 0hPa | 0V | 00:00:00 | 00:00:00 | 00:00:00 | |
| IN3HCDX1 | 2026-09-04 00:37:16 | 45.49107 | 14.85646 | 162° | 15km/h | 21487m | 5.4m/s | 0°C | 0% | 0hPa | 0V | 00:00:00 | 00:00:00 | 00:00:00 | |
| 9A1FER-3 | 2026-09-04 00:37:07 | 45.49124 | 14.85645 | 122° | 15km/h | 21442m | 3.4m/s | 0°C | 0% | 0hPa | 0V | 00:00:00 | 00:00:00 | 00:00:00 | |
| 9A1FER-10 | 2026-09-04 00:37:04 | 45.49134 | 14.85634 | 167° | 15km/h | 21428m | 4.5m/s | 0°C | 0% | 0hPa | 0V | 00:00:00 | 00:00:00 | 00:00:00 | |
| 9A1FER-3 | 2026-09-04 00:36:52 | 45.49175 | 14.85634 | 196° | 18km/h | 21363m | 4.5m/s | 0°C | 0% | 0hPa | 0V | 00:00:00 | 00:00:00 | 00:00:00 | |
| 9A1FER-10 | 2026-09-04 00:36:49 | 45.49185 | 14.85641 | 191° | 18km/h | 21347m | 5.5m/s | 0°C | 0% | 0hPa | 0V | 00:00:00 | 00:00:00 | 00:00:00 | |
| 9A1FER-3 | 2026-09-04 00:36:37 | 45.49237 | 14.85670 | 173° | 18km/h | 21285m | 4.0m/s | 0°C | 0% | 0hPa | 0V | 00:00:00 | 00:00:00 | 00:00:00 | |
| 9A1FER-10 | 2026-09-04 00:36:34 | 45.49251 | 14.85676 | 212° | 16km/h | 21271m | 4.4m/s | 0°C | 0% | 0hPa | 0V | 00:00:00 | 00:00:00 | 00:00:00 | |
| 9A1FER-3 | 2026-09-04 00:36:22 | 45.49298 | 14.85700 | 180° | 15km/h | 21207m | 3.9m/s | 0°C | 0% | 0hPa | 0V | 00:00:00 | 00:00:00 | 00:00:00 | |
| 9A1FER-10 | 2026-09-04 00:36:19 | 45.49310 | 14.85706 | 206° | 13km/h | 21191m | 5.1m/s | 0°C | 0% | 0hPa | 0V | 00:00:00 | 00:00:00 | 00:00:00 | |
| 9A1FER-3 | 2026-09-04 00:36:07 | 45.49367 | 14.85711 | 226° | 9km/h | 21131m | 6.4m/s | 0°C | 0% | 0hPa | 0V | 00:00:00 | 00:00:00 | 00:00:00 | |
| 9A1FER-10 | 2026-09-04 00:36:03 | 45.49358 | 14.85711 | 159° | 11km/h | 21110m | 2.7m/s | 0°C | 0% | 0hPa | 0V | 00:00:00 | 00:00:00 | 00:00:00 | |
| 9A1FER-3 | 2026-09-04 00:35:52 | 45.49379 | 14.85703 | 136° | 7km/h | 21056m | 5.3m/s | 0°C | 0% | 0hPa | 0V | 00:00:00 | 00:00:00 | 00:00:00 | |
| 9A1FER-10 | 2026-09-04 00:35:48 | 45.49382 | 14.85692 | 173° | 5km/h | 21035m | 6.4m/s | 0°C | 0% | 0hPa | 0V | 00:00:00 | 00:00:00 | 00:00:00 | |
| 9A1FER-3 | 2026-09-04 00:35:37 | 45.49372 | 14.85689 | 40° | 7km/h | 20978m | 3.5m/s | 0°C | 0% | 0hPa | 0V | 00:00:00 | 00:00:00 | 00:00:00 | |
| 9A1FER-10 | 2026-09-04 00:35:33 | 45.49364 | 14.85686 | 336° | 5km/h | 20955m | 5.9m/s | 0°C | 0% | 0hPa | 0V | 00:00:00 | 00:00:00 | 00:00:00 | |
| 9A1FER-3 | 2026-09-04 00:35:22 | 45.49359 | 14.85685 | 326° | 11km/h | 20896m | 6.2m/s | 0°C | 0% | 0hPa | 0V | 00:00:00 | 00:00:00 | 00:00:00 | |
| 9A1FER-10 | 2026-09-04 00:35:18 | 45.49355 | 14.85688 | 156° | 13km/h | 20875m | 4.9m/s | 0°C | 0% | 0hPa | 0V | 00:00:00 | 00:00:00 | 00:00:00 | |
| 9A1FER-3 | 2026-09-04 00:35:07 | 45.49360 | 14.85708 | 160° | 15km/h | 20812m | 5.7m/s | 0°C | 0% | 0hPa | 0V | 00:00:00 | 00:00:00 | 00:00:00 | |
| 9A1FER-10 | 2026-09-04 00:35:02 | 45.49373 | 14.85721 | 264° | 16km/h | 20787m | 6.4m/s | 0°C | 0% | 0hPa | 0V | 00:00:00 | 00:00:00 | 00:00:00 | |
| 9A1FER-3 | 2026-09-04 00:34:52 | 45.49388 | 14.85763 | 249° | 20km/h | 20731m | 5.3m/s | 0°C | 0% | 0hPa | 0V | 00:00:00 | 00:00:00 | 00:00:00 | |
| 9A1FER-10 | 2026-09-04 00:34:47 | 45.49399 | 14.85796 | 212° | 16km/h | 20704m | 4.4m/s | 0°C | 0% | 0hPa | 0V | 00:00:00 | 00:00:00 | 00:00:00 | |
| 9A1FER-3 | 2026-09-04 00:34:37 | 45.49433 | 14.85830 | 201° | 16km/h | 20650m | 5.4m/s | 0°C | 0% | 0hPa | 0V | 00:00:00 | 00:00:00 | 00:00:00 | |
| 9A1FER-10 | 2026-09-04 00:34:32 | 45.49451 | 14.85840 | 208° | 15km/h | 20620m | 4.6m/s | 0°C | 0% | 0hPa | 0V | 00:00:00 | 00:00:00 | 00:00:00 | |
| 9A1FER-3 | 2026-09-04 00:34:22 | 45.49490 | 14.85850 | 162° | 18km/h | 20568m | 4.2m/s | 0°C | 0% | 0hPa | 0V | 00:00:00 | 00:00:00 | 00:00:00 | |
| 9A1FER-10 | 2026-09-04 00:34:17 | 45.49509 | 14.85845 | 159° | 22km/h | 20540m | 4.4m/s | 0°C | 0% | 0hPa | 0V | 00:00:00 | 00:00:00 | 00:00:00 | |
| 9A1FER-3 | 2026-09-04 00:34:06 | 45.49553 | 14.85796 | 147° | 18km/h | 20484m | 4.5m/s | 0°C | 0% | 0hPa | 0V | 00:00:00 | 00:00:00 | 00:00:00 | |
| 9A1FER-10 | 2026-09-04 00:34:02 | 45.49565 | 14.85774 | 143° | 18km/h | 20465m | 5.9m/s | 0°C | 0% | 0hPa | 0V | 00:00:00 | 00:00:00 | 00:00:00 | |
| 9A1FER-3 | 2026-09-04 00:33:51 | 45.49597 | 14.85722 | 123° | 20km/h | 20404m | 5.3m/s | 0°C | 0% | 0hPa | 0V | 00:00:00 | 00:00:00 | 00:00:00 | |
| 9A1FER-10 | 2026-09-04 00:33:47 | 45.49608 | 14.85695 | 137° | 20km/h | 20381m | 4.9m/s | 0°C | 0% | 0hPa | 0V | 00:00:00 | 00:00:00 | 00:00:00 | |
| 9A1FER-3 | 2026-09-04 00:33:36 | 45.49622 | 14.85624 | 100° | 20km/h | 20326m | 4.7m/s | 0°C | 0% | 0hPa | 0V | 00:00:00 | 00:00:00 | 00:00:00 | |
| 9A1FER-10 | 2026-09-04 00:33:32 | 45.49620 | 14.85592 | 75° | 20km/h | 20304m | 5.5m/s | 0°C | 0% | 0hPa | 0V | 00:00:00 | 00:00:00 | 00:00:00 | |
| 9A1FER-3 | 2026-09-04 00:33:19 | 45.49611 | 14.85502 | 65° | 22km/h | 20237m | 5.4m/s | 0°C | 0% | 0hPa | 0V | 00:00:00 | 00:00:00 | 00:00:00 | |
| 9A1FER-10 | 2026-09-04 00:33:17 | 45.49606 | 14.85489 | 63° | 20km/h | 20226m | 4.4m/s | 0°C | 0% | 0hPa | 0V | 00:00:00 | 00:00:00 | 00:00:00 | |
| 9A1FER-3 | 2026-09-04 00:33:03 | 45.49573 | 14.85401 | 55° | 16km/h | 20151m | 6.2m/s | 0°C | 0% | 0hPa | 0V | 00:00:00 | 00:00:00 | 00:00:00 | |
| 9A1FER-10 | 2026-09-04 00:33:02 | 45.49571 | 14.85397 | 72° | 16km/h | 20145m | 4.7m/s | 0°C | 0% | 0hPa | 0V | 00:00:00 | 00:00:00 | 00:00:00 | |
| 9A1FER-10 | 2026-09-04 00:32:47 | 45.49559 | 14.85310 | 99° | 15km/h | 20063m | 5.1m/s | 0°C | 0% | 0hPa | 0V | 00:00:00 | 00:00:00 | 00:00:00 | |
| 9A1FER-3 | 2026-09-04 00:32:46 | 45.49560 | 14.85306 | 94° | 18km/h | 20058m | 5.3m/s | 0°C | 0% | 0hPa | 0V | 00:00:00 | 00:00:00 | 00:00:00 | |
| 9A1FER-10 | 2026-09-04 00:32:32 | 45.49553 | 14.85233 | 97° | 15km/h | 19982m | 4.0m/s | 0°C | 0% | 0hPa | 0V | 00:00:00 | 00:00:00 | 00:00:00 | |
| 9A1FER-10 | 2026-09-04 00:32:17 | 45.49581 | 14.85174 | 193° | 22km/h | 19904m | 4.6m/s | 0°C | 0% | 0hPa | 0V | 00:00:00 | 00:00:00 | 00:00:00 | |
| 9A1FER-10 | 2026-09-04 00:31:47 | 45.49738 | 14.85046 | 139° | 26km/h | 19743m | 2.7m/s | 0°C | 0% | 0hPa | 0V | 00:00:00 | 00:00:00 | 00:00:00 | |
| 9A1FER-10 | 2026-09-04 00:31:17 | 45.49897 | 14.84880 | 137° | 26km/h | 19587m | 5.3m/s | 0°C | 0% | 0hPa | 0V | 00:00:00 | 00:00:00 | 00:00:00 | |
| 9A1FER-10 | 2026-09-04 00:31:01 | 45.49990 | 14.84812 | 172° | 24km/h | 19507m | 4.4m/s | 0°C | 0% | 0hPa | 0V | 00:00:00 | 00:00:00 | 00:00:00 | |
| 9A1FER-3 | 2026-09-04 00:30:58 | 45.50005 | 14.84806 | 165° | 26km/h | 19492m | 7.1m/s | 0°C | 0% | 0hPa | 0V | 00:00:00 | 00:00:00 | 00:00:00 | |
| 9A1FER-10 | 2026-09-04 00:30:46 | 45.50075 | 14.84758 | 162° | 26km/h | 19429m | 4.4m/s | 0°C | 0% | 0hPa | 0V | 00:00:00 | 00:00:00 | 00:00:00 | |
| 9A1FER-3 | 2026-09-04 00:30:43 | 45.50093 | 14.84743 | 149° | 35km/h | 19416m | 4.4m/s | 0°C | 0% | 0hPa | 0V | 00:00:00 | 00:00:00 | 00:00:00 | |
| HA6NAB-11 | 2026-09-04 00:30:37 | 45.50123 | 14.84714 | 159° | 22km/h | 19386m | 3.8m/s | 0°C | 0% | 0hPa | 0V | 00:00:00 | 00:00:00 | 00:00:00 | |
| 9A1FER-10 | 2026-09-04 00:30:31 | 45.50155 | 14.84686 | 151° | 27km/h | 19360m | 4.2m/s | 0°C | 0% | 0hPa | 0V | 00:00:00 | 00:00:00 | 00:00:00 | |
| HA6NAB-11 | 2026-09-04 00:30:25 | 45.50181 | 14.84643 | 138° | 29km/h | 19330m | 5.8m/s | 0°C | 0% | 0hPa | 0V | 00:00:00 | 00:00:00 | 00:00:00 | |
| HA6NAB-11 | 2026-09-04 00:30:19 | 45.50212 | 14.84597 | 126° | 26km/h | 19302m | 4.3m/s | 0°C | 0% | 0hPa | 0V | 00:00:00 | 00:00:00 | 00:00:00 | |
| 9A1FER-10 | 2026-09-04 00:30:17 | 45.50220 | 14.84578 | 123° | 26km/h | 19287m | 5.9m/s | 0°C | 0% | 0hPa | 0V | 00:00:00 | 00:00:00 | 00:00:00 | |
| 9A1FER-10 | 2026-09-04 00:30:01 | 45.50275 | 14.84457 | 112° | 18km/h | 19214m | 3.9m/s | 0°C | 0% | 0hPa | 0V | 00:00:00 | 00:00:00 | 00:00:00 | |
| 9A1FER-10 | 2026-09-04 00:29:46 | 45.50292 | 14.84362 | 84° | 13km/h | 19143m | 3.5m/s | 0°C | 0% | 0hPa | 0V | 00:00:00 | 00:00:00 | 00:00:00 | |
| 9A1FER-10 | 2026-09-04 00:29:31 | 45.50291 | 14.84293 | 77° | 9km/h | 19071m | 5.4m/s | 0°C | 0% | 0hPa | 0V | 00:00:00 | 00:00:00 | 00:00:00 | |
| 9A1FER-10 | 2026-09-04 00:29:16 | 45.50294 | 14.84249 | 85° | 7km/h | 18996m | 5.2m/s | 0°C | 0% | 0hPa | 0V | 00:00:00 | 00:00:00 | 00:00:00 | |
| 9A1FER-10 | 2026-09-04 00:29:01 | 45.50318 | 14.84243 | 252° | 16km/h | 18918m | 4.6m/s | 0°C | 0% | 0hPa | 0V | 00:00:00 | 00:00:00 | 00:00:00 | |
| 9A1FER-10 | 2026-09-04 00:28:46 | 45.50367 | 14.84250 | 151° | 26km/h | 18835m | 5.0m/s | 0°C | 0% | 0hPa | 0V | 00:00:00 | 00:00:00 | 00:00:00 | |
| 9A1FER-10 | 2026-09-04 00:28:31 | 45.50468 | 14.84251 | 185° | 37km/h | 18734m | 7.8m/s | 0°C | 0% | 0hPa | 0V | 00:00:00 | 00:00:00 | 00:00:00 | |
| 9A1FER-10 | 2026-09-04 00:28:17 | 45.50603 | 14.84199 | 150° | 40km/h | 18646m | 5.0m/s | 0°C | 0% | 0hPa | 0V | 00:00:00 | 00:00:00 | 00:00:00 | |
| 9A1FER-3 | 2026-09-04 00:28:06 | 45.50699 | 14.84140 | 149° | 37km/h | 18590m | 4.7m/s | 0°C | 0% | 0hPa | 0V | 00:00:00 | 00:00:00 | 00:00:00 | |
| 9A1FER-10 | 2026-09-04 00:28:01 | 45.50743 | 14.84117 | 168° | 37km/h | 18565m | 6.6m/s | 0°C | 0% | 0hPa | 0V | 00:00:00 | 00:00:00 | 00:00:00 | |
| 9A1FER-3 | 2026-09-04 00:27:51 | 45.50823 | 14.84056 | 157° | 38km/h | 18514m | 6.0m/s | 0°C | 0% | 0hPa | 0V | 00:00:00 | 00:00:00 | 00:00:00 | |
| 9A1FER-3 | 2026-09-04 00:27:36 | 45.50948 | 14.83941 | 131° | 42km/h | 18441m | 4.3m/s | 0°C | 0% | 0hPa | 0V | 00:00:00 | 00:00:00 | 00:00:00 | |
| 9A1FER-10 | 2026-09-04 00:27:31 | 45.50990 | 14.83881 | 142° | 40km/h | 18420m | 3.7m/s | 0°C | 0% | 0hPa | 0V | 00:00:00 | 00:00:00 | 00:00:00 | |
| 9A1FER-10 | 2026-09-04 00:27:16 | 45.51114 | 14.83764 | 151° | 42km/h | 18347m | 4.2m/s | 0°C | 0% | 0hPa | 0V | 00:00:00 | 00:00:00 | 00:00:00 | |
| 9A1FER-3 | 2026-09-04 00:27:06 | 45.51209 | 14.83700 | 158° | 47km/h | 18298m | 5.8m/s | 0°C | 0% | 0hPa | 0V | 00:00:00 | 00:00:00 | 00:00:00 | |
| 9A1FER-10 | 2026-09-04 00:27:01 | 45.51258 | 14.83671 | 153° | 49km/h | 18272m | 5.5m/s | 0°C | 0% | 0hPa | 0V | 00:00:00 | 00:00:00 | 00:00:00 | |
| 9A1FER-3 | 2026-09-04 00:26:50 | 45.51384 | 14.83584 | 152° | 49km/h | 18219m | 3.0m/s | 0°C | 0% | 0hPa | 0V | 00:00:00 | 00:00:00 | 00:00:00 | |
| 9A1FER-10 | 2026-09-04 00:26:46 | 45.51422 | 14.83554 | 150° | 44km/h | 18202m | 5.2m/s | 0°C | 0% | 0hPa | 0V | 00:00:00 | 00:00:00 | 00:00:00 | |
| 9A1FER-10 | 2026-09-04 00:26:31 | 45.51564 | 14.83427 | 141° | 38km/h | 18127m | 5.1m/s | 0°C | 0% | 0hPa | 0V | 00:00:00 | 00:00:00 | 00:00:00 | |
| 9A1FER-3 | 2026-09-04 00:26:22 | 45.51630 | 14.83354 | 145° | 37km/h | 18086m | 5.9m/s | 0°C | 0% | 0hPa | 0V | 00:00:00 | 00:00:00 | 00:00:00 | |
| 9A1FER-10 | 2026-09-04 00:26:15 | 45.51677 | 14.83273 | 139° | 29km/h | 18049m | 7.4m/s | 0°C | 0% | 0hPa | 0V | 00:00:00 | 00:00:00 | 00:00:00 | |
| 9A1FER-3 | 2026-09-04 00:26:07 | 45.51718 | 14.83203 | 130° | 26km/h | 18006m | 3.8m/s | 0°C | 0% | 0hPa | 0V | 00:00:00 | 00:00:00 | 00:00:00 | |
| 9A1FER-10 | 2026-09-04 00:26:00 | 45.51751 | 14.83154 | 137° | 24km/h | 17968m | 5.1m/s | 0°C | 0% | 0hPa | 0V | 00:00:00 | 00:00:00 | 00:00:00 | |
| 9A1FER-3 | 2026-09-04 00:25:51 | 45.51792 | 14.83106 | 144° | 31km/h | 17923m | 5.4m/s | 0°C | 0% | 0hPa | 0V | 00:00:00 | 00:00:00 | 00:00:00 | |
| 9A1FER-10 | 2026-09-04 00:25:45 | 45.51819 | 14.83077 | 148° | 20km/h | 17893m | 4.5m/s | 0°C | 0% | 0hPa | 0V | 00:00:00 | 00:00:00 | 00:00:00 | |
| 9A1FER-10 | 2026-09-04 00:25:30 | 45.51887 | 14.83034 | 165° | 26km/h | 17816m | 6.0m/s | 0°C | 0% | 0hPa | 0V | 00:00:00 | 00:00:00 | 00:00:00 | |
| 9A1FER-10 | 2026-09-04 00:25:15 | 45.51964 | 14.82951 | 136° | 33km/h | 17735m | 5.1m/s | 0°C | 0% | 0hPa | 0V | 00:00:00 | 00:00:00 | 00:00:00 | |
| 9A1FER-10 | 2026-09-04 00:25:00 | 45.52056 | 14.82834 | 145° | 44km/h | 17655m | 6.6m/s | 0°C | 0% | 0hPa | 0V | 00:00:00 | 00:00:00 | 00:00:00 | |
| 9A1FER-10 | 2026-09-04 00:24:45 | 45.52184 | 14.82679 | 134° | 51km/h | 17577m | 5.1m/s | 0°C | 0% | 0hPa | 0V | 00:00:00 | 00:00:00 | 00:00:00 | |
| 9A1FER-3 | 2026-09-04 00:24:38 | 45.52253 | 14.82591 | 147° | 55km/h | 17541m | 5.6m/s | 0°C | 0% | 0hPa | 0V | 00:00:00 | 00:00:00 | 00:00:00 | |
| 9A1FER-10 | 2026-09-04 00:24:30 | 45.52321 | 14.82486 | 147° | 62km/h | 17501m | 5.1m/s | 0°C | 0% | 0hPa | 0V | 00:00:00 | 00:00:00 | 00:00:00 | |
| 9A1FER-3 | 2026-09-04 00:24:21 | 45.52427 | 14.82358 | 138° | 62km/h | 17442m | 7.1m/s | 0°C | 0% | 0hPa | 0V | 00:00:00 | 00:00:00 | 00:00:00 | |
| 9A1FER-10 | 2026-09-04 00:24:15 | 45.52494 | 14.82265 | 134° | 62km/h | 17406m | 6.9m/s | 0°C | 0% | 0hPa | 0V | 00:00:00 | 00:00:00 | 00:00:00 | |
| 9A1FER-3 | 2026-09-04 00:24:05 | 45.52602 | 14.82104 | 135° | 66km/h | 17352m | 6.1m/s | 0°C | 0% | 0hPa | 0V | 00:00:00 | 00:00:00 | 00:00:00 | |
| 9A1FER-10 | 2026-09-04 00:24:00 | 45.52657 | 14.82019 | 131° | 64km/h | 17327m | 3.3m/s | 0°C | 0% | 0hPa | 0V | 00:00:00 | 00:00:00 | 00:00:00 | |
| 9A1FER-3 | 2026-09-04 00:23:50 | 45.52770 | 14.81852 | 131° | 64km/h | 17270m | 7.1m/s | 0°C | 0% | 0hPa | 0V | 00:00:00 | 00:00:00 | 00:00:00 | |
| 9A1FER-10 | 2026-09-04 00:23:45 | 45.52823 | 14.81768 | 133° | 66km/h | 17245m | 6.8m/s | 0°C | 0% | 0hPa | 0V | 00:00:00 | 00:00:00 | 00:00:00 | |
| 9A1FER-3 | 2026-09-04 00:23:32 | 45.52956 | 14.81530 | 128° | 64km/h | 17179m | 6.0m/s | 0°C | 0% | 0hPa | 0V | 00:00:00 | 00:00:00 | 00:00:00 | |
| 9A1FER-10 | 2026-09-04 00:23:30 | 45.52977 | 14.81490 | 125° | 60km/h | 17169m | 7.0m/s | 0°C | 0% | 0hPa | 0V | 00:00:00 | 00:00:00 | 00:00:00 | |
| 9A1FER-3 | 2026-09-04 00:23:17 | 45.53088 | 14.81267 | 120° | 53km/h | 17104m | 2.4m/s | 0°C | 0% | 0hPa | 0V | 00:00:00 | 00:00:00 | 00:00:00 | |
| 9A1FER-10 | 2026-09-04 00:23:14 | 45.53104 | 14.81195 | 112° | 55km/h | 17089m | 6.3m/s | 0°C | 0% | 0hPa | 0V | 00:00:00 | 00:00:00 | 00:00:00 | |
| 9A1FER-3 | 2026-09-04 00:23:00 | 45.53186 | 14.80949 | 123° | 47km/h | 17022m | 5.2m/s | 0°C | 0% | 0hPa | 0V | 00:00:00 | 00:00:00 | 00:00:00 | |
| 9A1FER-10 | 2026-09-04 00:22:59 | 45.53193 | 14.80934 | 123° | 51km/h | 17017m | 5.0m/s | 0°C | 0% | 0hPa | 0V | 00:00:00 | 00:00:00 | 00:00:00 | |
| 9A1FER-10 | 2026-09-04 00:22:44 | 45.53290 | 14.80704 | 118° | 46km/h | 16943m | 3.6m/s | 0°C | 0% | 0hPa | 0V | 00:00:00 | 00:00:00 | 00:00:00 | |
| 9A1FER-3 | 2026-09-04 00:22:42 | 45.53302 | 14.80675 | 122° | 42km/h | 16933m | 2.9m/s | 0°C | 0% | 0hPa | 0V | 00:00:00 | 00:00:00 | 00:00:00 | |
| 9A1FER-10 | 2026-09-04 00:22:29 | 45.53379 | 14.80500 | 133° | 51km/h | 16868m | 7.6m/s | 0°C | 0% | 0hPa | 0V | 00:00:00 | 00:00:00 | 00:00:00 | |
| 9A1FER-10 | 2026-09-04 00:22:14 | 45.53502 | 14.80279 | 126° | 58km/h | 16784m | 3.9m/s | 0°C | 0% | 0hPa | 0V | 00:00:00 | 00:00:00 | 00:00:00 | |
| 9A1FER-10 | 2026-09-04 00:21:59 | 45.53641 | 14.80029 | 135° | 58km/h | 16710m | 5.2m/s | 0°C | 0% | 0hPa | 0V | 00:00:00 | 00:00:00 | 00:00:00 | |
| 9A1FER-3 | 2026-09-04 00:21:46 | 45.53747 | 14.79801 | 117° | 47km/h | 16648m | 4.5m/s | 0°C | 0% | 0hPa | 0V | 00:00:00 | 00:00:00 | 00:00:00 | |
| 9A1FER-10 | 2026-09-04 00:21:44 | 45.53757 | 14.79766 | 112° | 49km/h | 16637m | 3.7m/s | 0°C | 0% | 0hPa | 0V | 00:00:00 | 00:00:00 | 00:00:00 | |
| 9A1FER-10 | 2026-09-04 00:21:29 | 45.53845 | 14.79538 | 122° | 44km/h | 16557m | 6.9m/s | 0°C | 0% | 0hPa | 0V | 00:00:00 | 00:00:00 | 00:00:00 | |
| 9A1FER-10 | 2026-09-04 00:21:14 | 45.53926 | 14.79329 | 125° | 51km/h | 16474m | 3.6m/s | 0°C | 0% | 0hPa | 0V | 00:00:00 | 00:00:00 | 00:00:00 | |
| 9A1FER-10 | 2026-09-04 00:20:59 | 45.54024 | 14.79094 | 119° | 49km/h | 16399m | 4.6m/s | 0°C | 0% | 0hPa | 0V | 00:00:00 | 00:00:00 | 00:00:00 | |
| 9A1FER-3 | 2026-09-04 00:20:50 | 45.54081 | 14.78957 | 124° | 49km/h | 16346m | 8.7m/s | 0°C | 0% | 0hPa | 0V | 00:00:00 | 00:00:00 | 00:00:00 | |
| 9A1FER-10 | 2026-09-04 00:20:44 | 45.54119 | 14.78870 | 116° | 42km/h | 16312m | 5.4m/s | 0°C | 0% | 0hPa | 0V | 00:00:00 | 00:00:00 | 00:00:00 | |
| 9A1FER-10 | 2026-09-04 00:20:29 | 45.54211 | 14.78691 | 130° | 42km/h | 16235m | 3.5m/s | 0°C | 0% | 0hPa | 0V | 00:00:00 | 00:00:00 | 00:00:00 | |
| 9A1FER-10 | 2026-09-04 00:20:14 | 45.54320 | 14.78520 | 136° | 47km/h | 16152m | 9.1m/s | 0°C | 0% | 0hPa | 0V | 00:00:00 | 00:00:00 | 00:00:00 | |
| 9A1FER-10 | 2026-09-04 00:19:59 | 45.54443 | 14.78329 | 131° | 51km/h | 16068m | 4.3m/s | 0°C | 0% | 0hPa | 0V | 00:00:00 | 00:00:00 | 00:00:00 | |
| 9A1FER-10 | 2026-09-04 00:19:44 | 45.54580 | 14.78141 | 144° | 51km/h | 15987m | 4.5m/s | 0°C | 0% | 0hPa | 0V | 00:00:00 | 00:00:00 | 00:00:00 | |
| 9A1FER-10 | 2026-09-04 00:19:29 | 45.54737 | 14.77972 | 142° | 55km/h | 15902m | 5.4m/s | 0°C | 0% | 0hPa | 0V | 00:00:00 | 00:00:00 | 00:00:00 | |
| 9A1FER-10 | 2026-09-04 00:19:14 | 45.54905 | 14.77792 | 142° | 57km/h | 15817m | 6.1m/s | 0°C | 0% | 0hPa | 0V | 00:00:00 | 00:00:00 | 00:00:00 | |
| 9A1FER-10 | 2026-09-04 00:18:59 | 45.55078 | 14.77617 | 140° | 55km/h | 15734m | 4.5m/s | 0°C | 0% | 0hPa | 0V | 00:00:00 | 00:00:00 | 00:00:00 | |
| 9A1FER-10 | 2026-09-04 00:18:44 | 45.55251 | 14.77460 | 154° | 58km/h | 15645m | 6.0m/s | 0°C | 0% | 0hPa | 0V | 00:00:00 | 00:00:00 | 00:00:00 | |
| 9A1FER-10 | 2026-09-04 00:18:29 | 45.55446 | 14.77315 | 148° | 58km/h | 15562m | 5.8m/s | 0°C | 0% | 0hPa | 0V | 00:00:00 | 00:00:00 | 00:00:00 | |
| 9A1FER-10 | 2026-09-04 00:18:13 | 45.55648 | 14.77141 | 144° | 62km/h | 15471m | 3.9m/s | 0°C | 0% | 0hPa | 0V | 00:00:00 | 00:00:00 | 00:00:00 | |
| 9A1FER-10 | 2026-09-04 00:17:58 | 45.55837 | 14.76956 | 151° | 55km/h | 15399m | 4.8m/s | 0°C | 0% | 0hPa | 0V | 00:00:00 | 00:00:00 | 00:00:00 | |
| 9A1FER-3 | 2026-09-04 00:17:49 | 45.55947 | 14.76871 | 147° | 57km/h | 15353m | 3.4m/s | 0°C | 0% | 0hPa | 0V | 00:00:00 | 00:00:00 | 00:00:00 | |
| 9A1FER-10 | 2026-09-04 00:17:43 | 45.56020 | 14.76816 | 161° | 60km/h | 15320m | 6.0m/s | 0°C | 0% | 0hPa | 0V | 00:00:00 | 00:00:00 | 00:00:00 | |
| 9A1FER-10 | 2026-09-04 00:17:28 | 45.56225 | 14.76682 | 154° | 68km/h | 15249m | 5.9m/s | 0°C | 0% | 0hPa | 0V | 00:00:00 | 00:00:00 | 00:00:00 | |
| 9A1FER-3 | 2026-09-04 00:17:25 | 45.56267 | 14.76646 | 148° | 69km/h | 15232m | 6.7m/s | 0°C | 0% | 0hPa | 0V | 00:00:00 | 00:00:00 | 00:00:00 | |
| 9A1FER-10 | 2026-09-04 00:17:14 | 45.56447 | 14.76505 | 149° | 71km/h | 15171m | 4.7m/s | 0°C | 0% | 0hPa | 0V | 00:00:00 | 00:00:00 | 00:00:00 | |
| 9A1FER-3 | 2026-09-04 00:17:10 | 45.56494 | 14.76469 | 155° | 71km/h | 15155m | 4.6m/s | 0°C | 0% | 0hPa | 0V | 00:00:00 | 00:00:00 | 00:00:00 | |
| 9A1FER-10 | 2026-09-04 00:16:58 | 45.56687 | 14.76328 | 153° | 80km/h | 15083m | 5.9m/s | 0°C | 0% | 0hPa | 0V | 00:00:00 | 00:00:00 | 00:00:00 | |
| 9A1FER-3 | 2026-09-04 00:16:53 | 45.56775 | 14.76256 | 153° | 86km/h | 15056m | 3.5m/s | 0°C | 0% | 0hPa | 0V | 00:00:00 | 00:00:00 | 00:00:00 | |
| 9A1FER-10 | 2026-09-04 00:16:44 | 45.56950 | 14.76114 | 145° | 73km/h | 15003m | 4.0m/s | 0°C | 0% | 0hPa | 0V | 00:00:00 | 00:00:00 | 00:00:00 | |
| 9A1FER-10 | 2026-09-04 00:16:28 | 45.57180 | 14.75896 | 155° | 71km/h | 14922m | 3.8m/s | 0°C | 0% | 0hPa | 0V | 00:00:00 | 00:00:00 | 00:00:00 | |
| OE3JTB-15 | 2026-09-04 00:16:21 | 45.57322 | 14.75795 | 159° | 86km/h | 14875m | 3.2m/s | 0°C | 0% | 0hPa | 0V | 00:00:00 | 00:00:00 | 00:00:00 | |
| 9A1FER-10 | 2026-09-04 00:16:13 | 45.57419 | 14.75721 | 151° | 84km/h | 14843m | 5.9m/s | 0°C | 0% | 0hPa | 0V | 00:00:00 | 00:00:00 | 00:00:00 | |
| 9A1FER-10 | 2026-09-04 00:15:58 | 45.57696 | 14.75498 | 150° | 82km/h | 14767m | 5.8m/s | 0°C | 0% | 0hPa | 0V | 00:00:00 | 00:00:00 | 00:00:00 | |
| 9A1FER-10 | 2026-09-04 00:15:43 | 45.57956 | 14.75253 | 154° | 77km/h | 14686m | 7.4m/s | 0°C | 0% | 0hPa | 0V | 00:00:00 | 00:00:00 | 00:00:00 | |
| 9A1FER-10 | 2026-09-04 00:15:28 | 45.58205 | 14.75046 | 151° | 66km/h | 14606m | 7.3m/s | 0°C | 0% | 0hPa | 0V | 00:00:00 | 00:00:00 | 00:00:00 | |
| 9A1FER-10 | 2026-09-04 00:15:13 | 45.58423 | 14.74874 | 148° | 58km/h | 14522m | 5.0m/s | 0°C | 0% | 0hPa | 0V | 00:00:00 | 00:00:00 | 00:00:00 | |
| 9A1FER-10 | 2026-09-04 00:14:58 | 45.58616 | 14.74724 | 156° | 58km/h | 14442m | 3.4m/s | 0°C | 0% | 0hPa | 0V | 00:00:00 | 00:00:00 | 00:00:00 | |
| 9A1FER-10 | 2026-09-04 00:14:43 | 45.58832 | 14.74623 | 167° | 69km/h | 14355m | 7.6m/s | 0°C | 0% | 0hPa | 0V | 00:00:00 | 00:00:00 | 00:00:00 | |
| 9A1FER-10 | 2026-09-04 00:14:26 | 45.59117 | 14.74513 | 165° | 78km/h | 14263m | 7.9m/s | 0°C | 0% | 0hPa | 0V | 00:00:00 | 00:00:00 | 00:00:00 | |
| 9A1FER-10 | 2026-09-04 00:14:11 | 45.59411 | 14.74417 | 175° | 89km/h | 14178m | 5.3m/s | 0°C | 0% | 0hPa | 0V | 00:00:00 | 00:00:00 | 00:00:00 | |
| 9A1FER-10 | 2026-09-04 00:13:56 | 45.59739 | 14.74293 | 155° | 95km/h | 14095m | 6.1m/s | 0°C | 0% | 0hPa | 0V | 00:00:00 | 00:00:00 | 00:00:00 | |
| 9A1FER-10 | 2026-09-04 00:13:41 | 45.60071 | 14.74103 | 160° | 95km/h | 14010m | 6.7m/s | 0°C | 0% | 0hPa | 0V | 00:00:00 | 00:00:00 | 00:00:00 | |
| OE3JTB-15 | 2026-09-04 00:13:35 | 45.60193 | 14.74022 | 152° | 91km/h | 13976m | 8.0m/s | 0°C | 0% | 0hPa | 0V | 00:00:00 | 00:00:00 | 00:00:00 | |
| 9A1FER-10 | 2026-09-04 00:13:26 | 45.60389 | 14.73868 | 151° | 89km/h | 13928m | 6.4m/s | 0°C | 0% | 0hPa | 0V | 00:00:00 | 00:00:00 | 00:00:00 | |
| 9A1FER-10 | 2026-09-04 00:13:11 | 45.60689 | 14.73634 | 151° | 93km/h | 13857m | 3.4m/s | 0°C | 0% | 0hPa | 0V | 00:00:00 | 00:00:00 | 00:00:00 | |
| OE3JTB-15 | 2026-09-04 00:13:02 | 45.60877 | 14.73507 | 147° | 93km/h | 13815m | 6.5m/s | 0°C | 0% | 0hPa | 0V | 00:00:00 | 00:00:00 | 00:00:00 | |
| 9A1FER-10 | 2026-09-04 00:12:56 | 45.61004 | 14.73409 | 159° | 89km/h | 13786m | 5.9m/s | 0°C | 0% | 0hPa | 0V | 00:00:00 | 00:00:00 | 00:00:00 | |
| 9A1FER-10 | 2026-09-04 00:12:41 | 45.61308 | 14.73177 | 152° | 91km/h | 13711m | 7.2m/s | 0°C | 0% | 0hPa | 0V | 00:00:00 | 00:00:00 | 00:00:00 | |
| 9A1FER-10 | 2026-09-04 00:12:26 | 45.61606 | 14.72929 | 150° | 89km/h | 13639m | 5.4m/s | 0°C | 0% | 0hPa | 0V | 00:00:00 | 00:00:00 | 00:00:00 | |
| 9A1FER-3 | 2026-09-04 00:12:22 | 45.61688 | 14.72867 | 153° | 93km/h | 13617m | 4.0m/s | 0°C | 0% | 0hPa | 0V | 00:00:00 | 00:00:00 | 00:00:00 | |
| 9A1FER-10 | 2026-09-04 00:12:11 | 45.61916 | 14.72721 | 155° | 91km/h | 13558m | 8.1m/s | 0°C | 0% | 0hPa | 0V | 00:00:00 | 00:00:00 | 00:00:00 | |
| OE3JTB-15 | 2026-09-04 00:12:07 | 45.62005 | 14.72676 | 162° | 100km/h | 13536m | 6.0m/s | 0°C | 0% | 0hPa | 0V | 00:00:00 | 00:00:00 | 00:00:00 | |
| 9A1FER-10 | 2026-09-04 00:11:56 | 45.62249 | 14.72568 | 165° | 99km/h | 13473m | 4.1m/s | 0°C | 0% | 0hPa | 0V | 00:00:00 | 00:00:00 | 00:00:00 | |
| 9A1FER-3 | 2026-09-04 00:11:54 | 45.62296 | 14.72552 | 168° | 122km/h | 13461m | 5.0m/s | 0°C | 0% | 0hPa | 0V | 00:00:00 | 00:00:00 | 00:00:00 | |
| 9A1FER-10 | 2026-09-04 00:11:41 | 45.62616 | 14.72450 | 166° | 108km/h | 13388m | 3.7m/s | 0°C | 0% | 0hPa | 0V | 00:00:00 | 00:00:00 | 00:00:00 | |
| OE3JTB-15 | 2026-09-04 00:11:32 | 45.62851 | 14.72377 | 167° | 119km/h | 13340m | 5.0m/s | 0°C | 0% | 0hPa | 0V | 00:00:00 | 00:00:00 | 00:00:00 | |
| 9A1FER-10 | 2026-09-04 00:11:23 | 45.63096 | 14.72262 | 162° | 113km/h | 13283m | 6.1m/s | 0°C | 0% | 0hPa | 0V | 00:00:00 | 00:00:00 | 00:00:00 | |
| 9A1FER-10 | 2026-09-04 00:11:08 | 45.63511 | 14.72108 | 168° | 119km/h | 13195m | 5.6m/s | 0°C | 0% | 0hPa | 0V | 00:00:00 | 00:00:00 | 00:00:00 | |
| 9A1FER-10 | 2026-09-04 00:10:53 | 45.63960 | 14.71967 | 169° | 126km/h | 13111m | 7.7m/s | 0°C | 0% | 0hPa | 0V | 00:00:00 | 00:00:00 | 00:00:00 | |
| OE3JTB-15 | 2026-09-04 00:10:48 | 45.64112 | 14.71933 | 170° | 137km/h | 13086m | 6.4m/s | 0°C | 0% | 0hPa | 0V | 00:00:00 | 00:00:00 | 00:00:00 | |
| 9A1FER-10 | 2026-09-04 00:10:38 | 45.64433 | 14.71844 | 171° | 135km/h | 13032m | 6.1m/s | 0°C | 0% | 0hPa | 0V | 00:00:00 | 00:00:00 | 00:00:00 | |
| 9A1FER-10 | 2026-09-04 00:10:22 | 45.64967 | 14.71671 | 168° | 148km/h | 12944m | 6.4m/s | 0°C | 0% | 0hPa | 0V | 00:00:00 | 00:00:00 | 00:00:00 | |
| 9A1FER-10 | 2026-09-04 00:10:06 | 45.65543 | 14.71496 | 173° | 151km/h | 12861m | 9.0m/s | 0°C | 0% | 0hPa | 0V | 00:00:00 | 00:00:00 | 00:00:00 | |
| 9A1FER-10 | 2026-09-04 00:09:49 | 45.66175 | 14.71260 | 166° | 159km/h | 12775m | 6.6m/s | 0°C | 0% | 0hPa | 0V | 00:00:00 | 00:00:00 | 00:00:00 | |
| OE3JTB-15 | 2026-09-04 00:09:47 | 45.66254 | 14.71229 | 166° | 131km/h | 12763m | 3.6m/s | 0°C | 0% | 0hPa | 0V | 00:00:00 | 00:00:00 | 00:00:00 | |
| 9A1FER-10 | 2026-09-04 00:09:34 | 45.66751 | 14.71022 | 162° | 150km/h | 12699m | 2.2m/s | 0°C | 0% | 0hPa | 0V | 00:00:00 | 00:00:00 | 00:00:00 | |
| 9A1FER-10 | 2026-09-04 00:09:18 | 45.67328 | 14.70735 | 156° | 135km/h | 12623m | 5.7m/s | 0°C | 0% | 0hPa | 0V | 00:00:00 | 00:00:00 | 00:00:00 | |
| 9A1FER-3 | 2026-09-04 00:08:56 | 45.68058 | 14.70349 | 150° | 131km/h | 12504m | 4.7m/s | 0°C | 0% | 0hPa | 0V | 00:00:00 | 00:00:00 | 00:00:00 | |
| 9A1FER-10 | 2026-09-04 00:08:37 | 45.68640 | 14.70080 | 162° | 131km/h | 12374m | 9.0m/s | 0°C | 0% | 0hPa | 0V | 00:00:00 | 00:00:00 | 00:00:00 | |
| 9A1FER-10 | 2026-09-04 00:08:22 | 45.69118 | 14.69917 | 165° | 122km/h | 12273m | 6.6m/s | 0°C | 0% | 0hPa | 0V | 00:00:00 | 00:00:00 | 00:00:00 | |
| 9A1FER-10 | 2026-09-04 00:07:43 | 45.70350 | 14.69640 | 173° | 133km/h | 12049m | 4.6m/s | 0°C | 0% | 0hPa | 0V | 00:00:00 | 00:00:00 | 00:00:00 | |
| 9A1FER-10 | 2026-09-04 00:07:21 | 45.71106 | 14.69604 | 177° | 139km/h | 11927m | 7.6m/s | 0°C | 0% | 0hPa | 0V | 00:00:00 | 00:00:00 | 00:00:00 | |
| 9A1FER-3 | 2026-09-04 00:07:19 | 45.71177 | 14.69595 | 176° | 141km/h | 11917m | 5.9m/s | 0°C | 0% | 0hPa | 0V | 00:00:00 | 00:00:00 | 00:00:00 | |
| 9A1FER-10 | 2026-09-04 00:07:06 | 45.71633 | 14.69579 | 179° | 137km/h | 11854m | 4.9m/s | 0°C | 0% | 0hPa | 0V | 00:00:00 | 00:00:00 | 00:00:00 | |
| 9A1FER-3 | 2026-09-04 00:06:59 | 45.71876 | 14.69567 | 179° | 139km/h | 11815m | 6.8m/s | 0°C | 0% | 0hPa | 0V | 00:00:00 | 00:00:00 | 00:00:00 | |
| 9A1FER-3 | 2026-09-04 00:06:42 | 45.72466 | 14.69533 | 178° | 135km/h | 11725m | 5.9m/s | 0°C | 0% | 0hPa | 0V | 00:00:00 | 00:00:00 | 00:00:00 | |
| 9A1FER-10 | 2026-09-04 00:06:04 | 45.73780 | 14.69486 | 182° | 135km/h | 11537m | 4.2m/s | 0°C | 0% | 0hPa | 0V | 00:00:00 | 00:00:00 | 00:00:00 | |
| 9A1FER-3 | 2026-09-04 00:06:03 | 45.73816 | 14.69487 | 181° | 131km/h | 11532m | 4.9m/s | 0°C | 0% | 0hPa | 0V | 00:00:00 | 00:00:00 | 00:00:00 | |
| 9A1FER-3 | 2026-09-04 00:05:48 | 45.74313 | 14.69448 | 174° | 131km/h | 11452m | 3.5m/s | 0°C | 0% | 0hPa | 0V | 00:00:00 | 00:00:00 | 00:00:00 | |
| 9A1FER-3 | 2026-09-04 00:05:22 | 45.75164 | 14.69376 | 176° | 128km/h | 11322m | 4.7m/s | 0°C | 0% | 0hPa | 0V | 00:00:00 | 00:00:00 | 00:00:00 | |
| 9A1FER-10 | 2026-09-04 00:05:14 | 45.75423 | 14.69334 | 177° | 124km/h | 11286m | 5.0m/s | 0°C | 0% | 0hPa | 0V | 00:00:00 | 00:00:00 | 00:00:00 | |
| 9A1FER-3 | 2026-09-04 00:05:07 | 45.75645 | 14.69309 | 179° | 122km/h | 11254m | 5.8m/s | 0°C | 0% | 0hPa | 0V | 00:00:00 | 00:00:00 | 00:00:00 | |
| 9A1FER-3 | 2026-09-04 00:04:52 | 45.76113 | 14.69240 | 174° | 126km/h | 11183m | 7.7m/s | 0°C | 0% | 0hPa | 0V | 00:00:00 | 00:00:00 | 00:00:00 | |
| 9A1FER-3 | 2026-09-04 00:04:37 | 45.76588 | 14.69182 | 173° | 122km/h | 11103m | 5.5m/s | 0°C | 0% | 0hPa | 0V | 00:00:00 | 00:00:00 | 00:00:00 | |
| 9A1FER-3 | 2026-09-04 00:04:19 | 45.77186 | 14.69099 | 175° | 124km/h | 11003m | 3.9m/s | 0°C | 0% | 0hPa | 0V | 00:00:00 | 00:00:00 | 00:00:00 | |
| 9A1FER-10 | 2026-09-04 00:04:09 | 45.77496 | 14.69044 | 174° | 119km/h | 10952m | 4.1m/s | 0°C | 0% | 0hPa | 0V | 00:00:00 | 00:00:00 | 00:00:00 | |
| 9A1FER-3 | 2026-09-04 00:03:57 | 45.77841 | 14.68982 | 173° | 122km/h | 10897m | 5.4m/s | 0°C | 0% | 0hPa | 0V | 00:00:00 | 00:00:00 | 00:00:00 | |
| 9A1FER-3 | 2026-09-04 00:03:42 | 45.78305 | 14.68884 | 171° | 124km/h | 10831m | 4.5m/s | 0°C | 0% | 0hPa | 0V | 00:00:00 | 00:00:00 | 00:00:00 | |
| 9A1FER-3 | 2026-09-04 00:03:27 | 45.78765 | 14.68770 | 168° | 111km/h | 10767m | 6.5m/s | 0°C | 0% | 0hPa | 0V | 00:00:00 | 00:00:00 | 00:00:00 | |
| 9A1FER-3 | 2026-09-04 00:02:22 | 45.81122 | 14.68263 | 170° | 104km/h | 10324m | 6.2m/s | 0°C | 0% | 0hPa | 0V | 00:00:00 | 00:00:00 | 00:00:00 | |
| 9A1FER-3 | 2026-09-04 00:01:59 | 45.81537 | 14.68149 | 170° | 102km/h | 10242m | 5.7m/s | 0°C | 0% | 0hPa | 0V | 00:00:00 | 00:00:00 | 00:00:00 | |
| 9A1FER-3 | 2026-09-04 00:01:38 | 45.81921 | 14.68031 | 169° | 102km/h | 10171m | 4.4m/s | 0°C | 0% | 0hPa | 0V | 00:00:00 | 00:00:00 | 00:00:00 | |
| 9A1FER-3 | 2026-09-04 00:01:20 | 45.82301 | 14.67902 | 167° | 106km/h | 10102m | 3.9m/s | 0°C | 0% | 0hPa | 0V | 00:00:00 | 00:00:00 | 00:00:00 | |
| 9A1FER-10 | 2026-09-04 00:01:06 | 45.82586 | 14.67804 | 170° | 108km/h | 10044m | 3.5m/s | 0°C | 0% | 0hPa | 0V | 00:00:00 | 00:00:00 | 00:00:00 | |
| 9A1FER-3 | 2026-09-04 00:00:47 | 45.83066 | 14.67612 | 170° | 102km/h | 9936m | 3.7m/s | 0°C | 0% | 0hPa | 0V | 00:00:00 | 00:00:00 | 00:00:00 | |
| 9A1FER-3 | 2026-09-04 00:00:21 | 45.83705 | 14.67341 | 161° | 102km/h | 9810m | 2.7m/s | 0°C | 0% | 0hPa | 0V | 00:00:00 | 00:00:00 | 00:00:00 | |
| 9A1FER-3 | 2026-09-04 00:00:03 | 45.84156 | 14.67143 | 164° | 104km/h | 9724m | 4.8m/s | 0°C | 0% | 0hPa | 0V | 00:00:00 | 00:00:00 | 00:00:00 | |
| 9A1FER-3 | 2026-09-03 23:59:20 | 45.85204 | 14.66722 | 163° | 100km/h | 9494m | 8.3m/s | 0°C | 0% | 0hPa | 0V | 00:00:00 | 00:00:00 | 00:00:00 | |
| 9A1FER-3 | 2026-09-03 23:59:05 | 45.85566 | 14.66579 | 166° | 99km/h | 9410m | 4.2m/s | 0°C | 0% | 0hPa | 0V | 00:00:00 | 00:00:00 | 00:00:00 | |
| 9A1FER-3 | 2026-09-03 23:58:48 | 45.85979 | 14.66419 | 163° | 99km/h | 9327m | 3.3m/s | 0°C | 0% | 0hPa | 0V | 00:00:00 | 00:00:00 | 00:00:00 | |
| 9A1FER-3 | 2026-09-03 23:58:32 | 45.86365 | 14.66250 | 165° | 99km/h | 9252m | 3.6m/s | 0°C | 0% | 0hPa | 0V | 00:00:00 | 00:00:00 | 00:00:00 | |
| 9A1FER-3 | 2026-09-03 23:58:17 | 45.86723 | 14.66083 | 163° | 95km/h | 9178m | 5.2m/s | 0°C | 0% | 0hPa | 0V | 00:00:00 | 00:00:00 | 00:00:00 | |
| 9A1FER-10 | 2026-09-03 23:58:09 | 45.86913 | 14.65999 | 164° | 95km/h | 9140m | 5.5m/s | 0°C | 0% | 0hPa | 0V | 00:00:00 | 00:00:00 | 00:00:00 | |
| 9A1FER-3 | 2026-09-03 23:58:02 | 45.87079 | 14.65929 | 164° | 102km/h | 9108m | 6.0m/s | 0°C | 0% | 0hPa | 0V | 00:00:00 | 00:00:00 | 00:00:00 | |
| 9A1FER-3 | 2026-09-03 23:57:47 | 45.87441 | 14.65758 | 163° | 95km/h | 9032m | 5.4m/s | 0°C | 0% | 0hPa | 0V | 00:00:00 | 00:00:00 | 00:00:00 | |
| 9A1FER-3 | 2026-09-03 23:57:32 | 45.87778 | 14.65564 | 153° | 93km/h | 8958m | 3.1m/s | 0°C | 0% | 0hPa | 0V | 00:00:00 | 00:00:00 | 00:00:00 | |
| 9A1FER-3 | 2026-09-03 23:57:06 | 45.88321 | 14.65181 | 155° | 86km/h | 8810m | 3.9m/s | 0°C | 0% | 0hPa | 0V | 00:00:00 | 00:00:00 | 00:00:00 | |
| 9A1FER-3 | 2026-09-03 23:56:50 | 45.88639 | 14.64952 | 148° | 86km/h | 8720m | 6.6m/s | 0°C | 0% | 0hPa | 0V | 00:00:00 | 00:00:00 | 00:00:00 | |
| OE3JTB-15 | 2026-09-03 23:56:37 | 45.88887 | 14.64750 | 151° | 84km/h | 8657m | 5.1m/s | 0°C | 0% | 0hPa | 0V | 00:00:00 | 00:00:00 | 00:00:00 | |
| 9A1FER-3 | 2026-09-03 23:56:12 | 45.89339 | 14.64345 | 148° | 86km/h | 8537m | 2.7m/s | 0°C | 0% | 0hPa | 0V | 00:00:00 | 00:00:00 | 00:00:00 | |
| 9A1FER-3 | 2026-09-03 23:55:57 | 45.89603 | 14.64103 | 143° | 84km/h | 8467m | 6.4m/s | 0°C | 0% | 0hPa | 0V | 00:00:00 | 00:00:00 | 00:00:00 | |
| OE3JTB-15 | 2026-09-03 23:55:44 | 45.89834 | 14.63891 | 146° | 84km/h | 8403m | 3.5m/s | 0°C | 0% | 0hPa | 0V | 00:00:00 | 00:00:00 | 00:00:00 | |
| 9A1FER-3 | 2026-09-03 23:55:18 | 45.90294 | 14.63472 | 146° | 84km/h | 8283m | 4.1m/s | 0°C | 0% | 0hPa | 0V | 00:00:00 | 00:00:00 | 00:00:00 | |
| OE3JTB-15 | 2026-09-03 23:55:15 | 45.90347 | 14.63417 | 144° | 86km/h | 8268m | 5.6m/s | 0°C | 0% | 0hPa | 0V | 00:00:00 | 00:00:00 | 00:00:00 | |
| OE3JTB-15 | 2026-09-03 23:54:46 | 45.90857 | 14.62884 | 146° | 82km/h | 8139m | 5.4m/s | 0°C | 0% | 0hPa | 0V | 00:00:00 | 00:00:00 | 00:00:00 | |
| OE3JTB-15 | 2026-09-03 23:52:28 | 45.93297 | 14.60723 | 152° | 84km/h | 7546m | 3.7m/s | 0°C | 0% | 0hPa | 0V | 00:00:00 | 00:00:00 | 00:00:00 | |
| 9A1FER-3 | 2026-09-03 23:52:26 | 45.93334 | 14.60694 | 154° | 82km/h | 7537m | 5.3m/s | 0°C | 0% | 0hPa | 0V | 00:00:00 | 00:00:00 | 00:00:00 | |
| 9A1FER-3 | 2026-09-03 23:52:08 | 45.93668 | 14.60449 | 154° | 82km/h | 7461m | 4.2m/s | 0°C | 0% | 0hPa | 0V | 00:00:00 | 00:00:00 | 00:00:00 | |
| 9A1FER-10 | 2026-09-03 23:51:51 | 45.93982 | 14.60209 | 156° | 84km/h | 7395m | 4.5m/s | 0°C | 0% | 0hPa | 0V | 00:00:00 | 00:00:00 | 00:00:00 | |
| 9A1FER-3 | 2026-09-03 23:51:47 | 45.94053 | 14.60155 | 151° | 82km/h | 7377m | 3.9m/s | 0°C | 0% | 0hPa | 0V | 00:00:00 | 00:00:00 | 00:00:00 | |
| 9A1FER-10 | 2026-09-03 23:51:35 | 45.94267 | 14.59972 | 145° | 82km/h | 7319m | 4.9m/s | 0°C | 0% | 0hPa | 0V | 00:00:00 | 00:00:00 | 00:00:00 | |
| 9A1FER-3 | 2026-09-03 23:51:32 | 45.94319 | 14.59929 | 151° | 82km/h | 7309m | 5.5m/s | 0°C | 0% | 0hPa | 0V | 00:00:00 | 00:00:00 | 00:00:00 | |
| 9A1FER-3 | 2026-09-03 23:51:17 | 45.94582 | 14.59692 | 151° | 80km/h | 7240m | 4.0m/s | 0°C | 0% | 0hPa | 0V | 00:00:00 | 00:00:00 | 00:00:00 | |
| 9A1FER-10 | 2026-09-03 23:51:13 | 45.94650 | 14.59625 | 146° | 80km/h | 7223m | 4.2m/s | 0°C | 0% | 0hPa | 0V | 00:00:00 | 00:00:00 | 00:00:00 | |
| 9A1FER-3 | 2026-09-03 23:51:02 | 45.94841 | 14.59458 | 151° | 78km/h | 7175m | 4.7m/s | 0°C | 0% | 0hPa | 0V | 00:00:00 | 00:00:00 | 00:00:00 | |
| 9A1FER-10 | 2026-09-03 23:50:58 | 45.94908 | 14.59394 | 142° | 78km/h | 7156m | 5.9m/s | 0°C | 0% | 0hPa | 0V | 00:00:00 | 00:00:00 | 00:00:00 | |
| 9A1FER-3 | 2026-09-03 23:50:47 | 45.95088 | 14.59227 | 147° | 80km/h | 7092m | 3.2m/s | 0°C | 0% | 0hPa | 0V | 00:00:00 | 00:00:00 | 00:00:00 | |
| 9A1FER-10 | 2026-09-03 23:50:43 | 45.95158 | 14.59164 | 150° | 80km/h | 7071m | 5.9m/s | 0°C | 0% | 0hPa | 0V | 00:00:00 | 00:00:00 | 00:00:00 | |
| 9A1FER-3 | 2026-09-03 23:50:32 | 45.95354 | 14.59008 | 150° | 82km/h | 7004m | 3.6m/s | 0°C | 0% | 0hPa | 0V | 00:00:00 | 00:00:00 | 00:00:00 | |
| 9A1FER-10 | 2026-09-03 23:50:27 | 45.95439 | 14.58934 | 149° | 82km/h | 6974m | 5.8m/s | 0°C | 0% | 0hPa | 0V | 00:00:00 | 00:00:00 | 00:00:00 | |
| 9A1FER-3 | 2026-09-03 23:50:16 | 45.95637 | 14.58769 | 149° | 80km/h | 6925m | 4.6m/s | 0°C | 0% | 0hPa | 0V | 00:00:00 | 00:00:00 | 00:00:00 | |
| 9A1FER-10 | 2026-09-03 23:50:12 | 45.95710 | 14.58708 | 151° | 78km/h | 6907m | 5.4m/s | 0°C | 0% | 0hPa | 0V | 00:00:00 | 00:00:00 | 00:00:00 | |
| 9A1FER-3 | 2026-09-03 23:50:01 | 45.95906 | 14.58559 | 154° | 80km/h | 6857m | 5.8m/s | 0°C | 0% | 0hPa | 0V | 00:00:00 | 00:00:00 | 00:00:00 | |
| 9A1FER-3 | 2026-09-03 23:49:46 | 45.96176 | 14.58363 | 153° | 80km/h | 6792m | 4.9m/s | 0°C | 0% | 0hPa | 0V | 00:00:00 | 00:00:00 | 00:00:00 | |
| 9A1FER-10 | 2026-09-03 23:49:26 | 45.96551 | 14.58082 | 152° | 82km/h | 6675m | 3.2m/s | 0°C | 0% | 0hPa | 0V | 00:00:00 | 00:00:00 | 00:00:00 | |
| 9A1FER-3 | 2026-09-03 23:49:20 | 45.96660 | 14.58010 | 152° | 80km/h | 6649m | 3.1m/s | 0°C | 0% | 0hPa | 0V | 00:00:00 | 00:00:00 | 00:00:00 | |
| 9A1FER-10 | 2026-09-03 23:49:10 | 45.96846 | 14.57885 | 156° | 82km/h | 6609m | 4.6m/s | 0°C | 0% | 0hPa | 0V | 00:00:00 | 00:00:00 | 00:00:00 | |
| 9A1FER-3 | 2026-09-03 23:49:05 | 45.96941 | 14.57829 | 155° | 82km/h | 6589m | 3.5m/s | 0°C | 0% | 0hPa | 0V | 00:00:00 | 00:00:00 | 00:00:00 |